Regional Weather Roundup
Issued by NWS

Home | Current Version | Previous Version | Graphics & Text | Print | Product List | Glossary On
Versions: 1 2 3 4 5 6 7 8 9 10 11 12 13 14 15 16 17 18 19 20 21 22 23 24 25 26 27 28 29 30 31 32 33 34 35 36 37 38 39 40 41 42 43 44 45 46 47 48 49 50
000
ASUS45 KPSR 290410
RWRAZ

ARIZONA REGIONAL HOURLY WEATHER ROUNDUP
NATIONAL WEATHER SERVICE PHOENIX AZ
900 PM MST MON JUL 28 2014

NOTE: FAIR INDICATES FEW OR NO CLOUDS BELOW 12,000 FEET WITH NO
SIGNIFICANT WEATHER AND/OR OBSTRUCTIONS TO VISIBILITY.

AZZ001>003-036-290500-
NORTHWEST ARIZONA

CITY           SKY/WX    TMP DP  RH WIND       PRES   REMARKS
BULLHEAD CITY  CLOUDY    91  63  38 NE8       29.96R
KINGMAN        CLEAR     74  60  61 SE6       30.16R
$$

AZZ004>008-015-016-018-290500-
NORTH CENTRAL ARIZONA

CITY           SKY/WX    TMP DP  RH WIND       PRES   REMARKS
GRAND CANYON   PTCLDY    61  54  77 CALM      30.39R
WILLIAMS       MOCLDY    63  57  82 CALM      30.45S
PRESCOTT       MOCLDY    67  59  75 S6        30.29R
FLAGSTAFF      PTCLDY    61  53  75 CALM      30.42R
PAYSON         PTCLDY    68  55  64 N8        30.30R
PAGE           CLOUDY    81  53  37 SE7       30.20R
$$

AZZ009>014-017-290500-
NORTHEAST ARIZONA

CITY           SKY/WX    TMP DP  RH WIND       PRES   REMARKS
WINSLOW        CLOUDY    78  55  44 W7        30.27R
SAINT JOHNS    MOCLDY    71  60  68 S3        30.31R
WINDOW ROCK    LGT RAIN  62  57  83 CALM      30.41R
SHOW LOW       MOCLDY    66  52  59 S5        30.40R
$$

AZZ023-290500-
GREATER PHOENIX AREA

CITY           SKY/WX    TMP DP  RH WIND       PRES   REMARKS
PHOENIX        PTCLDY   102  56  21 NW9       29.91R HX 101
BUCKEYE          N/A     93  57  29 W7        29.93R
LUKE AFB       NOT AVBL
DEER VALLEY    CLEAR     98  56  24 SW6       29.94R
SCOTTSDALE     CLEAR     98  58  26 W5        29.96R
MESA-GATEWAY     N/A    N/A N/A N/A MISG        N/A
CHANDLER       MOCLDY    99  59  26 SW6       29.93R
$$

AZZ027-028-290500-
SOUTHWEST MARICOPA COUNTY AND PINAL COUNTY

CITY           SKY/WX    TMP DP  RH WIND       PRES   REMARKS
CASA GRANDE    PTCLDY    93  59  31 W6        29.97R
GILA BEND      CLEAR     99  55  23 NW5       29.92R
$$

AZZ503-504-507>509-290500-
SOUTHEAST ARIZONA

CITY           SKY/WX    TMP DP  RH WIND       PRES   REMARKS
TUCSON         CLEAR     89  62  40 S5        30.08R
DAVIS-MONTHAN  CLEAR     85  65  51 S6        30.07R
NOGALES        CLEAR     77  61  57 E7        30.18R
SIERRA VISTA   PTCLDY    75  61  60 SW8       30.25R
DOUGLAS        PTCLDY    78  67  68 N7        30.19R
SAFFORD        CLEAR     83  67  58 NW3       30.10R
$$

AZZ020-021-025-026-031-290500-
SOUTHWEST ARIZONA

CITY           SKY/WX    TMP DP  RH WIND       PRES   REMARKS
YUMA           PTCLDY    97  65  34 SW12      29.87R
$$

CAZ031-033-041-043-047-048-061-290500-
SOUTHERN CALIFORNIA

CITY           SKY/WX    TMP DP  RH WIND       PRES   REMARKS
DOWNTOWN L.A.  CLEAR     72  63  73 W3        30.00R
L.A. AIRPORT   PTCLDY    69  64  84 W12       30.01R
SAN DIEGO      PTCLDY    75  64  68 NW5       30.03R
BURBANK        CLEAR     79  50  36 E3        30.02R
ONTARIO        PTCLDY    82  33  17 W9        30.02R
RIVERSIDE      CLEAR     83  26  12 W6        30.02R
PALM SPRINGS   CLEAR     99  48  17 NW17      29.90R
EL CENTRO NAS  PTCLDY    98  55  23 SW10      29.84R
IMPERIAL       CLEAR    100  55  22 W9        29.84R
BLYTHE           N/A    N/A N/A N/A MISG      29.86R
NEEDLES        CLOUDY    84  70  62 N13       29.95R
$$

NVZ020-UTZ003-290500-
SOUTHERN NEVADA-UTAH

CITY           SKY/WX    TMP DP  RH WIND       PRES   REMARKS
LAS VEGAS      MOCLDY    85  62  46 S8        30.01R
SALT LAKE CITY CLOUDY    69  64  84 W5        30.21R
$$

NMZ009-TXZ055-290500-
NEW MEXICO-WEST TEXAS

CITY           SKY/WX    TMP DP  RH WIND       PRES   REMARKS
ALBUQUERQUE    CLOUDY    72  58  61 E13       30.32R
EL PASO        MOCLDY    86  54  33 E7        30.13S
$$


........................KEY........................
SKY/WX - SKY CONDITION/WEATHER
TMP    - TEMPERATURE IN FAHRENHEIT
DP     - DEW POINT IN FAHRENHEIT
RH     - RELATIVE HUMIDITY IN PERCENT
WIND   - DIRECTION AND SPEED IN MILES PER HOUR (MPH)
VRB    - VARIABLE WIND DIRECTION
PRES   - MEAN SEA LEVEL PRESSURE IN INCHES OF MERCURY
         F - FALLING PRESSURE   R - RISING PRESSURE
         S - STEADY PRESSURE
VSB    - VISIBILITY IN MILES
HX     - HEAT INDEX IN FAHRENHEIT
WCI    - WIND CHILL INDEX IN FAHRENHEIT
TC     - TEMPERATURE IN CELSIUS WHICH IS ALSO KNOWN AS
         TEMPERATURE IN CENTIGRADE
AFB    - AIR FORCE BASE
         LUKE AFB IS LUKE AIR FORCE BASE
         DAVIS-MONTHAN IS DAVIS-MONTHAN AIR FORCE BASE
NAS    - NAVAL AIR STATION
         EL CENTRO NAS IS EL CENTRO NAVAL AIR STATION
N/A    - NOT AVAILABLE



USA.gov is the U.S. government's official web portal to all federal, state and local government web resources and services.